Time,TemperatureF,DewpointF,PressureIn,WindDirection,WindDirectionDegrees,WindSpeedMPH,WindSpeedGustMPH,Humidity,HourlyPrecipIn,Conditions,Clouds,dailyrainin,SoftwareType,DateUTC
2013-05-30 00:04:00,76.0,70.1,29.77,SE,142,8.0,-999.0,82,0.00,,,0.00,Wunderground v.1.15,2013-05-30 05:04:00,
2013-05-30 00:10:00,76.0,70.1,29.76,ENE,62,8.0,-999.0,82,0.00,,,0.00,Wunderground v.1.15,2013-05-30 05:10:00,
2013-05-30 00:15:00,76.0,70.1,29.76,East,88,11.0,-999.0,82,0.00,,,0.00,Wunderground v.1.15,2013-05-30 05:15:00,
2013-05-30 00:20:00,75.9,70.0,29.76,East,93,5.0,-999.0,82,0.00,,,0.00,Wunderground v.1.15,2013-05-30 05:20:00,
2013-05-30 00:26:00,75.8,69.9,29.76,ESE,107,5.0,-999.0,82,0.00,,,0.00,Wunderground v.1.15,2013-05-30 05:26:00,
2013-05-30 00:31:00,75.7,70.2,29.76,East,95,4.0,-999.0,83,0.00,,,0.00,Wunderground v.1.15,2013-05-30 05:31:00,
2013-05-30 00:36:00,75.5,70.0,29.76,NE,54,8.0,-999.0,83,0.00,,,0.00,Wunderground v.1.15,2013-05-30 05:36:00,
2013-05-30 00:41:00,75.5,70.0,29.75,ENE,66,3.0,-999.0,83,0.00,,,0.00,Wunderground v.1.15,2013-05-30 05:41:00,
2013-05-30 00:46:00,75.3,69.8,29.76,SSE,164,4.0,-999.0,83,0.00,,,0.00,Wunderground v.1.15,2013-05-30 05:46:00,
2013-05-30 00:52:00,75.3,70.1,29.76,ESE,103,7.0,-999.0,84,0.00,,,0.00,Wunderground v.1.15,2013-05-30 05:52:00,
2013-05-30 00:57:00,75.4,70.2,29.76,NE,54,5.0,-999.0,84,0.00,,,0.00,Wunderground v.1.15,2013-05-30 05:57:00,
2013-05-30 01:02:00,75.3,70.1,29.76,SSE,157,5.0,-999.0,84,0.00,,,0.00,Wunderground v.1.15,2013-05-30 06:02:00,
2013-05-30 01:07:00,75.2,70.0,29.76,SE,137,6.0,-999.0,84,0.00,,,0.00,Wunderground v.1.15,2013-05-30 06:07:00,
2013-05-30 01:12:00,75.0,70.2,29.76,ENE,78,7.0,-999.0,85,0.00,,,0.00,Wunderground v.1.15,2013-05-30 06:12:00,
2013-05-30 01:17:00,74.9,70.1,29.76,ESE,120,4.0,-999.0,85,0.00,,,0.00,Wunderground v.1.15,2013-05-30 06:17:00,
2013-05-30 01:22:00,74.9,70.1,29.75,SE,136,5.0,-999.0,85,0.00,,,0.00,Wunderground v.1.15,2013-05-30 06:22:00,
2013-05-30 01:27:00,74.8,70.0,29.75,ESE,113,4.0,-999.0,85,0.00,,,0.00,Wunderground v.1.15,2013-05-30 06:27:00,
2013-05-30 01:32:00,74.9,70.4,29.76,East,88,5.0,-999.0,86,0.00,,,0.00,Wunderground v.1.15,2013-05-30 06:32:00,
2013-05-30 01:37:00,75.0,70.5,29.75,SE,137,4.0,-999.0,86,0.00,,,0.00,Wunderground v.1.15,2013-05-30 06:37:00,
2013-05-30 01:43:00,74.9,70.4,29.75,SE,134,6.0,-999.0,86,0.00,,,0.00,Wunderground v.1.15,2013-05-30 06:43:00,
2013-05-30 01:48:00,75.0,70.5,29.75,East,80,6.0,-999.0,86,0.00,,,0.00,Wunderground v.1.15,2013-05-30 06:48:00,
2013-05-30 01:53:00,75.0,70.5,29.75,SE,135,9.0,-999.0,86,0.00,,,0.00,Wunderground v.1.15,2013-05-30 06:53:00,
2013-05-30 01:59:00,75.0,70.5,29.75,ENE,70,9.0,-999.0,86,0.00,,,0.00,Wunderground v.1.15,2013-05-30 06:59:00,
2013-05-30 02:05:00,75.1,70.6,29.74,SE,134,6.0,-999.0,86,0.00,,,0.00,Wunderground v.1.15,2013-05-30 07:05:00,
2013-05-30 02:11:00,75.0,70.9,29.74,ESE,116,4.0,-999.0,87,0.00,,,0.00,Wunderground v.1.15,2013-05-30 07:11:00,
2013-05-30 02:16:00,75.0,70.9,29.74,SE,146,11.0,-999.0,87,0.00,,,0.00,Wunderground v.1.15,2013-05-30 07:16:00,
2013-05-30 02:21:00,75.0,70.9,29.74,SE,140,10.0,-999.0,87,0.00,,,0.00,Wunderground v.1.15,2013-05-30 07:21:00,
2013-05-30 02:26:00,74.9,70.8,29.74,NE,56,4.0,-999.0,87,0.00,,,0.00,Wunderground v.1.15,2013-05-30 07:26:00,
2013-05-30 02:31:00,74.9,70.8,29.74,ESE,112,8.0,-999.0,87,0.00,,,0.00,Wunderground v.1.15,2013-05-30 07:31:00,
2013-05-30 02:36:00,74.8,70.7,29.74,ENE,64,5.0,-999.0,87,0.00,,,0.00,Wunderground v.1.15,2013-05-30 07:36:00,
2013-05-30 02:42:00,74.8,70.7,29.75,ESE,114,9.0,-999.0,87,0.00,,,0.00,Wunderground v.1.15,2013-05-30 07:42:00,
2013-05-30 02:47:00,74.8,70.7,29.75,SE,135,4.0,-999.0,87,0.00,,,0.00,Wunderground v.1.15,2013-05-30 07:47:00,
2013-05-30 02:52:00,74.7,70.6,29.74,SE,134,9.0,-999.0,87,0.00,,,0.00,Wunderground v.1.15,2013-05-30 07:52:00,
2013-05-30 02:57:00,74.7,70.6,29.74,NE,56,10.0,-999.0,87,0.00,,,0.00,Wunderground v.1.15,2013-05-30 07:57:00,
2013-05-30 03:03:00,74.6,70.8,29.74,SSE,163,2.0,-999.0,88,0.00,,,0.00,Wunderground v.1.15,2013-05-30 08:03:00,
2013-05-30 03:09:00,74.5,70.7,29.74,SE,141,4.0,-999.0,88,0.00,,,0.00,Wunderground v.1.15,2013-05-30 08:09:00,
2013-05-30 03:15:00,74.5,70.7,29.75,ESE,112,3.0,-999.0,88,0.00,,,0.00,Wunderground v.1.15,2013-05-30 08:15:00,
2013-05-30 03:20:00,74.5,70.7,29.75,SE,135,11.0,-999.0,88,0.00,,,0.00,Wunderground v.1.15,2013-05-30 08:20:00,
2013-05-30 03:25:00,74.5,70.7,29.75,SSE,150,5.0,-999.0,88,0.00,,,0.00,Wunderground v.1.15,2013-05-30 08:25:00,
2013-05-30 03:30:00,74.5,70.7,29.75,South,181,3.0,-999.0,88,0.00,,,0.00,Wunderground v.1.15,2013-05-30 08:30:00,
2013-05-30 03:35:00,74.4,70.6,29.75,SSE,150,6.0,-999.0,88,0.00,,,0.00,Wunderground v.1.15,2013-05-30 08:35:00,
2013-05-30 03:41:00,74.3,70.5,29.75,South,170,6.0,-999.0,88,0.00,,,0.00,Wunderground v.1.15,2013-05-30 08:41:00,
2013-05-30 03:46:00,74.2,70.4,29.75,SSE,165,8.0,-999.0,88,0.00,,,0.00,Wunderground v.1.15,2013-05-30 08:46:00,
2013-05-30 03:52:00,74.4,70.3,29.75,SSE,159,6.0,-999.0,87,0.00,,,0.00,Wunderground v.1.15,2013-05-30 08:52:00,
2013-05-30 03:58:00,74.5,70.4,29.75,East,91,7.0,-999.0,87,0.00,,,0.00,Wunderground v.1.15,2013-05-30 08:58:00,
2013-05-30 04:03:00,74.5,70.4,29.75,SSE,148,8.0,-999.0,87,0.00,,,0.00,Wunderground v.1.15,2013-05-30 09:03:00,
2013-05-30 04:08:00,74.4,70.3,29.75,SE,139,5.0,-999.0,87,0.00,,,0.00,Wunderground v.1.15,2013-05-30 09:08:00,
2013-05-30 04:14:00,74.4,70.6,29.75,SE,141,4.0,-999.0,88,0.00,,,0.00,Wunderground v.1.15,2013-05-30 09:14:00,
2013-05-30 04:19:00,74.4,70.6,29.75,SE,126,5.0,-999.0,88,0.00,,,0.00,Wunderground v.1.15,2013-05-30 09:19:00,
2013-05-30 04:24:00,74.4,70.6,29.75,East,83,4.0,-999.0,88,0.00,,,0.00,Wunderground v.1.15,2013-05-30 09:24:00,
2013-05-30 04:29:00,74.5,70.7,29.75,ESE,114,4.0,-999.0,88,0.00,,,0.00,Wunderground v.1.15,2013-05-30 09:29:00,
2013-05-30 04:34:00,74.5,70.7,29.75,SE,143,4.0,-999.0,88,0.00,,,0.00,Wunderground v.1.15,2013-05-30 09:34:00,
2013-05-30 04:39:00,74.5,70.7,29.75,SSE,163,6.0,-999.0,88,0.00,,,0.00,Wunderground v.1.15,2013-05-30 09:39:00,
2013-05-30 04:44:00,74.5,70.4,29.75,SSE,164,3.0,-999.0,87,0.00,,,0.00,Wunderground v.1.15,2013-05-30 09:44:00,
2013-05-30 04:49:00,74.6,70.5,29.75,SE,138,4.0,-999.0,87,0.00,,,0.00,Wunderground v.1.15,2013-05-30 09:49:00,
2013-05-30 04:54:00,74.6,70.5,29.75,SE,132,5.0,-999.0,87,0.00,,,0.00,Wunderground v.1.15,2013-05-30 09:54:00,
2013-05-30 04:59:00,74.6,70.5,29.75,SE,139,4.0,-999.0,87,0.00,,,0.00,Wunderground v.1.15,2013-05-30 09:59:00,
2013-05-30 05:04:00,74.6,70.5,29.75,ESE,122,4.0,-999.0,87,0.00,,,0.00,Wunderground v.1.15,2013-05-30 10:04:00,
2013-05-30 05:09:00,74.6,70.5,29.76,ESE,120,3.0,-999.0,87,0.00,,,0.00,Wunderground v.1.15,2013-05-30 10:09:00,
2013-05-30 05:14:00,74.6,70.5,29.76,East,95,3.0,-999.0,87,0.00,,,0.00,Wunderground v.1.15,2013-05-30 10:14:00,
2013-05-30 05:19:00,74.6,70.5,29.76,SSE,158,7.0,-999.0,87,0.00,,,0.00,Wunderground v.1.15,2013-05-30 10:19:00,
2013-05-30 05:24:00,74.6,70.5,29.76,East,82,11.0,-999.0,87,0.00,,,0.00,Wunderground v.1.15,2013-05-30 10:24:00,
2013-05-30 05:29:00,74.6,70.5,29.76,SSE,149,3.0,-999.0,87,0.00,,,0.00,Wunderground v.1.15,2013-05-30 10:29:00,
2013-05-30 05:35:00,74.6,70.5,29.76,SSE,167,7.0,-999.0,87,0.00,,,0.00,Wunderground v.1.15,2013-05-30 10:35:00,
2013-05-30 05:40:00,74.6,70.5,29.76,ESE,121,2.0,-999.0,87,0.00,,,0.00,Wunderground v.1.15,2013-05-30 10:40:00,
2013-05-30 05:45:00,74.7,70.6,29.76,SE,126,7.0,-999.0,87,0.00,,,0.00,Wunderground v.1.15,2013-05-30 10:45:00,
2013-05-30 05:50:00,74.7,70.2,29.76,ESE,107,9.0,-999.0,86,0.00,,,0.00,Wunderground v.1.15,2013-05-30 10:50:00,
2013-05-30 05:55:00,74.7,70.2,29.76,SE,142,3.0,-999.0,86,0.00,,,0.00,Wunderground v.1.15,2013-05-30 10:55:00,
2013-05-30 06:01:00,74.6,70.1,29.76,South,191,5.0,-999.0,86,0.00,,,0.00,Wunderground v.1.15,2013-05-30 11:01:00,
2013-05-30 06:06:00,74.6,70.1,29.77,SE,124,4.0,-999.0,86,0.00,,,0.00,Wunderground v.1.15,2013-05-30 11:06:00,
2013-05-30 06:12:00,74.6,70.5,29.77,ESE,120,0.0,-999.0,87,0.00,,,0.00,Wunderground v.1.15,2013-05-30 11:12:00,
2013-05-30 06:17:00,74.6,70.5,29.77,South,173,7.0,-999.0,87,0.00,,,0.00,Wunderground v.1.15,2013-05-30 11:17:00,
2013-05-30 06:22:00,74.6,70.5,29.77,SSE,151,7.0,-999.0,87,0.00,,,0.00,Wunderground v.1.15,2013-05-30 11:22:00,
2013-05-30 06:27:00,74.6,70.5,29.77,ENE,76,0.0,-999.0,87,0.00,,,0.00,Wunderground v.1.15,2013-05-30 11:27:00,
2013-05-30 06:32:00,74.6,70.5,29.77,ESE,116,3.0,-999.0,87,0.00,,,0.00,Wunderground v.1.15,2013-05-30 11:32:00,
2013-05-30 06:37:00,74.5,70.4,29.78,South,172,5.0,-999.0,87,0.00,,,0.00,Wunderground v.1.15,2013-05-30 11:37:00,
2013-05-30 06:42:00,74.6,70.5,29.78,SE,132,5.0,-999.0,87,0.00,,,0.00,Wunderground v.1.15,2013-05-30 11:42:00,
2013-05-30 06:47:00,74.6,70.5,29.78,SW,217,5.0,-999.0,87,0.00,,,0.00,Wunderground v.1.15,2013-05-30 11:47:00,
2013-05-30 06:52:00,74.7,70.6,29.78,SSE,164,5.0,-999.0,87,0.00,,,0.00,Wunderground v.1.15,2013-05-30 11:52:00,
2013-05-30 06:57:00,74.7,70.9,29.78,ESE,118,6.0,-999.0,88,0.00,,,0.00,Wunderground v.1.15,2013-05-30 11:57:00,
2013-05-30 07:02:00,74.8,71.0,29.78,SE,126,8.0,-999.0,88,0.00,,,0.00,Wunderground v.1.15,2013-05-30 12:02:00,
2013-05-30 07:07:00,74.9,71.1,29.78,NE,56,2.0,-999.0,88,0.00,,,0.00,Wunderground v.1.15,2013-05-30 12:07:00,
2013-05-30 07:12:00,74.9,71.1,29.78,ESE,104,5.0,-999.0,88,0.00,,,0.00,Wunderground v.1.15,2013-05-30 12:12:00,
2013-05-30 07:18:00,75.0,71.2,29.78,East,89,7.0,-999.0,88,0.00,,,0.00,Wunderground v.1.15,2013-05-30 12:18:00,
2013-05-30 07:23:00,75.0,71.2,29.78,South,186,8.0,-999.0,88,0.00,,,0.00,Wunderground v.1.15,2013-05-30 12:23:00,
2013-05-30 07:28:00,75.1,71.3,29.78,East,101,3.0,-999.0,88,0.00,,,0.00,Wunderground v.1.15,2013-05-30 12:28:00,
2013-05-30 07:34:00,75.1,71.3,29.78,SSE,153,3.0,-999.0,88,0.00,,,0.00,Wunderground v.1.15,2013-05-30 12:34:00,
2013-05-30 07:40:00,75.1,71.3,29.78,East,81,7.0,-999.0,88,0.00,,,0.00,Wunderground v.1.15,2013-05-30 12:40:00,
2013-05-30 07:45:00,75.3,71.5,29.78,SE,124,7.0,-999.0,88,0.00,,,0.00,Wunderground v.1.15,2013-05-30 12:45:00,
2013-05-30 07:50:00,75.6,71.8,29.79,SE,138,8.0,-999.0,88,0.00,,,0.00,Wunderground v.1.15,2013-05-30 12:50:00,
2013-05-30 07:55:00,76.0,71.8,29.78,NE,49,4.0,-999.0,87,0.00,,,0.00,Wunderground v.1.15,2013-05-30 12:55:00,
2013-05-30 08:00:00,76.1,71.6,29.79,SSW,204,7.0,-999.0,86,0.00,,,0.00,Wunderground v.1.15,2013-05-30 13:00:00,
2013-05-30 08:05:00,76.2,71.7,29.79,SSE,161,8.0,-999.0,86,0.00,,,0.00,Wunderground v.1.15,2013-05-30 13:05:00,
2013-05-30 08:10:00,76.4,71.9,29.79,SE,146,6.0,-999.0,86,0.00,,,0.00,Wunderground v.1.15,2013-05-30 13:10:00,
2013-05-30 08:16:00,76.4,71.9,29.79,SSE,159,11.0,-999.0,86,0.00,,,0.00,Wunderground v.1.15,2013-05-30 13:16:00,
2013-05-30 08:21:00,76.3,71.8,29.79,SSW,199,4.0,-999.0,86,0.00,,,0.00,Wunderground v.1.15,2013-05-30 13:21:00,
2013-05-30 08:26:00,76.4,71.9,29.78,SE,135,6.0,-999.0,86,0.00,,,0.00,Wunderground v.1.15,2013-05-30 13:26:00,
2013-05-30 08:31:00,76.6,72.1,29.78,East,89,5.0,-999.0,86,0.00,,,0.00,Wunderground v.1.15,2013-05-30 13:31:00,
2013-05-30 08:36:00,77.0,72.5,29.78,SE,126,5.0,-999.0,86,0.00,,,0.00,Wunderground v.1.15,2013-05-30 13:36:00,
2013-05-30 08:42:00,77.4,72.2,29.78,SSE,166,8.0,-999.0,84,0.00,,,0.00,Wunderground v.1.15,2013-05-30 13:42:00,
2013-05-30 08:47:00,77.6,72.4,29.77,SSE,159,9.0,-999.0,84,0.00,,,0.00,Wunderground v.1.15,2013-05-30 13:47:00,
2013-05-30 08:52:00,77.7,72.5,29.76,SSE,149,3.0,-999.0,84,0.00,,,0.00,Wunderground v.1.15,2013-05-30 13:52:00,
2013-05-30 08:57:00,77.7,72.5,29.76,East,87,4.0,-999.0,84,0.00,,,0.00,Wunderground v.1.15,2013-05-30 13:57:00,
2013-05-30 09:02:00,77.6,72.4,29.75,SSE,165,11.0,-999.0,84,0.00,,,0.00,Wunderground v.1.15,2013-05-30 14:02:00,
2013-05-30 09:07:00,77.4,72.2,29.75,ESE,107,2.0,-999.0,84,0.00,,,0.00,Wunderground v.1.15,2013-05-30 14:07:00,
2013-05-30 09:12:00,77.3,72.1,29.75,South,186,4.0,-999.0,84,0.00,,,0.00,Wunderground v.1.15,2013-05-30 14:12:00,
2013-05-30 09:18:00,77.1,71.9,29.78,SW,230,3.0,-999.0,84,0.00,,,0.00,Wunderground v.1.15,2013-05-30 14:18:00,
2013-05-30 09:23:00,76.9,71.7,29.78,SE,128,1.0,-999.0,84,0.00,,,0.00,Wunderground v.1.15,2013-05-30 14:23:00,
2013-05-30 09:28:00,76.9,71.7,29.77,SE,128,4.0,-999.0,84,0.00,,,0.00,Wunderground v.1.15,2013-05-30 14:28:00,
2013-05-30 09:33:00,77.2,72.0,29.78,South,172,3.0,-999.0,84,0.00,,,0.00,Wunderground v.1.15,2013-05-30 14:33:00,
2013-05-30 09:38:00,77.5,72.3,29.78,ENE,59,2.0,-999.0,84,0.00,,,0.00,Wunderground v.1.15,2013-05-30 14:38:00,
2013-05-30 09:43:00,77.9,72.7,29.78,South,191,1.0,-999.0,84,0.00,,,0.00,Wunderground v.1.15,2013-05-30 14:43:00,
2013-05-30 09:48:00,78.2,72.6,29.78,South,186,3.0,-999.0,83,0.00,,,0.00,Wunderground v.1.15,2013-05-30 14:48:00,
2013-05-30 09:54:00,78.5,72.9,29.78,South,176,8.0,-999.0,83,0.00,,,0.00,Wunderground v.1.15,2013-05-30 14:54:00,
2013-05-30 09:59:00,79.3,73.3,29.78,SSE,156,3.0,-999.0,82,0.00,,,0.00,Wunderground v.1.15,2013-05-30 14:59:00,
2013-05-30 10:05:00,80.2,73.5,29.78,SSE,166,1.0,-999.0,80,0.00,,,0.00,Wunderground v.1.15,2013-05-30 15:05:00,
2013-05-30 10:10:00,80.9,73.8,29.78,SE,139,9.0,-999.0,79,0.00,,,0.00,Wunderground v.1.15,2013-05-30 15:10:00,
2013-05-30 10:15:00,81.4,73.5,29.78,SSW,198,1.0,-999.0,77,0.00,,,0.00,Wunderground v.1.15,2013-05-30 15:15:00,
2013-05-30 10:21:00,81.8,73.1,29.78,SE,124,10.0,-999.0,75,0.00,,,0.00,Wunderground v.1.15,2013-05-30 15:21:00,
2013-05-30 10:26:00,81.9,73.2,29.78,South,181,5.0,-999.0,75,0.00,,,0.00,Wunderground v.1.15,2013-05-30 15:26:00,
2013-05-30 10:32:00,81.7,73.0,29.78,SSW,207,6.0,-999.0,75,0.00,,,0.00,Wunderground v.1.15,2013-05-30 15:32:00,
2013-05-30 10:37:00,81.8,73.1,29.78,SSE,159,5.0,-999.0,75,0.00,,,0.00,Wunderground v.1.15,2013-05-30 15:37:00,
2013-05-30 10:42:00,82.5,73.4,29.78,SSW,208,4.0,-999.0,74,0.00,,,0.00,Wunderground v.1.15,2013-05-30 15:42:00,
2013-05-30 10:47:00,82.9,73.4,29.78,ESE,107,4.0,-999.0,73,0.00,,,0.00,Wunderground v.1.15,2013-05-30 15:47:00,
2013-05-30 10:52:00,83.2,73.2,29.78,SSW,208,8.0,-999.0,72,0.00,,,0.00,Wunderground v.1.15,2013-05-30 15:52:00,
2013-05-30 10:57:00,82.8,73.3,29.78,SE,141,6.0,-999.0,73,0.00,,,0.00,Wunderground v.1.15,2013-05-30 15:57:00,
2013-05-30 11:02:00,82.1,72.6,29.78,SSW,205,2.0,-999.0,73,0.00,,,0.00,Wunderground v.1.15,2013-05-30 16:02:00,
2013-05-30 11:07:00,81.8,72.7,29.78,SSE,165,13.0,-999.0,74,0.00,,,0.00,Wunderground v.1.15,2013-05-30 16:07:00,
2013-05-30 11:13:00,82.3,73.2,29.78,ESE,115,4.0,-999.0,74,0.00,,,0.00,Wunderground v.1.15,2013-05-30 16:13:00,
2013-05-30 11:18:00,82.4,72.9,29.78,South,181,3.0,-999.0,73,0.00,,,0.00,Wunderground v.1.15,2013-05-30 16:18:00,
2013-05-30 11:23:00,82.1,73.4,29.78,ESE,118,2.0,-999.0,75,0.00,,,0.00,Wunderground v.1.15,2013-05-30 16:23:00,
2013-05-30 11:28:00,82.9,73.8,29.78,SSW,201,1.0,-999.0,74,0.00,,,0.00,Wunderground v.1.15,2013-05-30 16:28:00,
2013-05-30 11:34:00,83.6,74.0,29.78,East,85,7.0,-999.0,73,0.00,,,0.00,Wunderground v.1.15,2013-05-30 16:34:00,
2013-05-30 11:39:00,83.9,74.3,29.78,SSW,201,1.0,-999.0,73,0.00,,,0.00,Wunderground v.1.15,2013-05-30 16:39:00,
2013-05-30 11:44:00,83.9,72.6,29.78,ESE,122,11.0,-999.0,69,0.00,,,0.00,Wunderground v.1.15,2013-05-30 16:44:00,
2013-05-30 11:49:00,82.9,72.5,29.78,East,100,7.0,-999.0,71,0.00,,,0.00,Wunderground v.1.15,2013-05-30 16:49:00,
2013-05-30 11:54:00,82.7,72.7,29.78,SSW,202,2.0,-999.0,72,0.00,,,0.00,Wunderground v.1.15,2013-05-30 16:54:00,
2013-05-30 11:59:00,82.7,72.7,29.78,South,186,9.0,-999.0,72,0.00,,,0.00,Wunderground v.1.15,2013-05-30 16:59:00,
2013-05-30 12:04:00,82.1,72.6,29.78,SSW,201,8.0,-999.0,73,0.00,,,0.00,Wunderground v.1.15,2013-05-30 17:04:00,
2013-05-30 12:10:00,81.7,72.6,29.78,SE,143,2.0,-999.0,74,0.00,,,0.00,Wunderground v.1.15,2013-05-30 17:10:00,
2013-05-30 12:15:00,82.2,73.1,29.78,South,191,3.0,-999.0,74,0.00,,,0.00,Wunderground v.1.15,2013-05-30 17:15:00,
2013-05-30 12:20:00,82.7,73.2,29.78,SE,125,1.0,-999.0,73,0.00,,,0.00,Wunderground v.1.15,2013-05-30 17:20:00,
2013-05-30 12:25:00,82.8,73.3,29.78,SSE,166,2.0,-999.0,73,0.00,,,0.00,Wunderground v.1.15,2013-05-30 17:25:00,
2013-05-30 12:30:00,82.7,72.7,29.78,South,171,2.0,-999.0,72,0.00,,,0.00,Wunderground v.1.15,2013-05-30 17:30:00,
2013-05-30 12:36:00,82.7,73.2,29.78,ESE,110,1.0,-999.0,73,0.00,,,0.00,Wunderground v.1.15,2013-05-30 17:36:00,
2013-05-30 12:41:00,82.8,73.3,29.78,ESE,104,6.0,-999.0,73,0.00,,,0.00,Wunderground v.1.15,2013-05-30 17:41:00,
2013-05-30 12:46:00,82.7,73.2,29.78,SE,130,5.0,-999.0,73,0.00,,,0.00,Wunderground v.1.15,2013-05-30 17:46:00,
2013-05-30 12:52:00,82.0,72.9,29.78,South,177,2.0,-999.0,74,0.00,,,0.00,Wunderground v.1.15,2013-05-30 17:52:00,
2013-05-30 12:56:00,81.8,73.1,29.78,South,181,3.0,-999.0,75,0.00,,,0.00,Wunderground v.1.15,2013-05-30 17:56:00,
2013-05-30 13:01:00,82.1,73.4,29.78,SSE,159,4.0,-999.0,75,0.00,,,0.00,Wunderground v.1.15,2013-05-30 18:01:00,
2013-05-30 13:06:00,82.4,73.3,29.78,South,172,8.0,-999.0,74,0.00,,,0.00,Wunderground v.1.15,2013-05-30 18:06:00,
2013-05-30 13:11:00,82.3,73.2,29.78,SSW,201,0.0,-999.0,74,0.00,,,0.00,Wunderground v.1.15,2013-05-30 18:11:00,
2013-05-30 13:16:00,81.8,72.7,29.78,ESE,109,1.0,-999.0,74,0.00,,,0.00,Wunderground v.1.15,2013-05-30 18:16:00,
2013-05-30 13:21:00,81.8,73.1,29.78,South,186,4.0,-999.0,75,0.00,,,0.00,Wunderground v.1.15,2013-05-30 18:21:00,
2013-05-30 13:26:00,82.3,73.6,29.78,South,181,2.0,-999.0,75,0.00,,,0.00,Wunderground v.1.15,2013-05-30 18:26:00,
2013-05-30 13:31:00,82.3,73.2,29.78,SE,135,0.0,-999.0,74,0.00,,,0.00,Wunderground v.1.15,2013-05-30 18:31:00,
2013-05-30 13:37:00,82.2,73.5,29.77,SE,124,1.0,-999.0,75,0.00,,,0.00,Wunderground v.1.15,2013-05-30 18:37:00,
2013-05-30 13:42:00,82.1,73.4,29.77,SSE,159,1.0,-999.0,75,0.00,,,0.00,Wunderground v.1.15,2013-05-30 18:42:00,
2013-05-30 13:47:00,82.0,73.3,29.77,South,191,5.0,-999.0,75,0.00,,,0.00,Wunderground v.1.15,2013-05-30 18:47:00,
2013-05-30 13:52:00,82.1,73.4,29.77,East,96,2.0,-999.0,75,0.00,,,0.00,Wunderground v.1.15,2013-05-30 18:52:00,
2013-05-30 13:57:00,82.4,73.7,29.77,SSE,157,4.0,-999.0,75,0.00,,,0.00,Wunderground v.1.15,2013-05-30 18:57:00,
2013-05-30 14:03:00,82.5,73.4,29.76,SE,137,0.0,-999.0,74,0.00,,,0.00,Wunderground v.1.15,2013-05-30 19:03:00,
2013-05-30 14:08:00,82.5,73.4,29.76,SE,137,2.0,-999.0,74,0.00,,,0.00,Wunderground v.1.15,2013-05-30 19:08:00,
2013-05-30 14:13:00,82.4,73.7,29.76,ESE,103,0.0,-999.0,75,0.00,,,0.00,Wunderground v.1.15,2013-05-30 19:13:00,
2013-05-30 14:18:00,81.9,74.4,29.76,SE,127,3.0,-999.0,78,0.00,,,0.00,Wunderground v.1.15,2013-05-30 19:18:00,
2013-05-30 14:23:00,80.6,74.2,29.76,SSE,156,0.0,-999.0,81,0.00,,,0.00,Wunderground v.1.15,2013-05-30 19:23:00,
2013-05-30 14:28:00,79.9,74.3,29.76,SE,132,1.0,-999.0,83,0.00,,,0.00,Wunderground v.1.15,2013-05-30 19:28:00,
2013-05-30 14:33:00,79.8,74.5,29.75,SE,124,0.0,-999.0,84,0.00,,,0.00,Wunderground v.1.15,2013-05-30 19:33:00,
2013-05-30 14:38:00,79.8,74.9,29.75,SE,141,1.0,-999.0,85,0.00,,,0.00,Wunderground v.1.15,2013-05-30 19:38:00,
2013-05-30 14:43:00,80.0,74.4,29.75,South,177,0.0,-999.0,83,0.00,,,0.00,Wunderground v.1.15,2013-05-30 19:43:00,
2013-05-30 14:48:00,80.4,74.8,29.75,ESE,118,1.0,-999.0,83,0.00,,,0.00,Wunderground v.1.15,2013-05-30 19:48:00,
2013-05-30 14:53:00,80.4,74.8,29.75,South,191,0.0,-999.0,83,0.00,,,0.00,Wunderground v.1.15,2013-05-30 19:53:00,
2013-05-30 14:58:00,80.5,75.2,29.74,SE,142,1.0,-999.0,84,0.00,,,0.00,Wunderground v.1.15,2013-05-30 19:58:00,
2013-05-30 15:03:00,80.9,75.2,29.74,South,170,3.0,-999.0,83,0.00,,,0.00,Wunderground v.1.15,2013-05-30 20:03:00,
2013-05-30 15:08:00,81.5,75.1,29.74,South,181,0.0,-999.0,81,0.00,,,0.00,Wunderground v.1.15,2013-05-30 20:08:00,
2013-05-30 15:13:00,82.5,76.1,29.74,SSE,149,3.0,-999.0,81,0.00,,,0.00,Wunderground v.1.15,2013-05-30 20:13:00,
2013-05-30 15:18:00,83.7,75.3,29.73,SSE,162,3.0,-999.0,76,0.00,,,0.00,Wunderground v.1.15,2013-05-30 20:18:00,
2013-05-30 15:23:00,84.8,75.2,29.73,South,186,5.0,-999.0,73,0.00,,,0.00,Wunderground v.1.15,2013-05-30 20:23:00,
2013-05-30 15:28:00,85.0,74.5,29.73,SSW,205,10.0,-999.0,71,0.00,,,0.00,Wunderground v.1.15,2013-05-30 20:28:00,
2013-05-30 15:34:00,85.0,74.1,29.73,SSW,196,8.0,-999.0,70,0.00,,,0.00,Wunderground v.1.15,2013-05-30 20:34:00,
2013-05-30 15:39:00,84.9,74.0,29.73,South,181,7.0,-999.0,70,0.00,,,0.00,Wunderground v.1.15,2013-05-30 20:39:00,
2013-05-30 15:44:00,84.4,74.0,29.73,SSW,201,9.0,-999.0,71,0.00,,,0.00,Wunderground v.1.15,2013-05-30 20:44:00,
2013-05-30 15:49:00,84.1,74.1,29.73,SE,137,0.0,-999.0,72,0.00,,,0.00,Wunderground v.1.15,2013-05-30 20:49:00,
2013-05-30 15:54:00,84.1,74.1,29.73,SE,135,2.0,-999.0,72,0.00,,,0.00,Wunderground v.1.15,2013-05-30 20:54:00,
2013-05-30 16:00:00,84.2,75.0,29.72,East,79,1.0,-999.0,74,0.00,,,0.00,Wunderground v.1.15,2013-05-30 21:00:00,
2013-05-30 16:05:00,84.7,74.7,29.72,ESE,118,6.0,-999.0,72,0.00,,,0.00,Wunderground v.1.15,2013-05-30 21:05:00,
2013-05-30 16:10:00,84.8,74.8,29.72,SE,138,4.0,-999.0,72,0.00,,,0.00,Wunderground v.1.15,2013-05-30 21:10:00,
2013-05-30 16:15:00,85.1,74.6,29.72,South,191,2.0,-999.0,71,0.00,,,0.00,Wunderground v.1.15,2013-05-30 21:15:00,
2013-05-30 16:20:00,85.3,74.8,29.72,SSW,208,3.0,-999.0,71,0.00,,,0.00,Wunderground v.1.15,2013-05-30 21:20:00,
2013-05-30 16:25:00,85.7,74.8,29.72,SSW,202,4.0,-999.0,70,0.00,,,0.00,Wunderground v.1.15,2013-05-30 21:25:00,
2013-05-30 16:30:00,85.9,74.5,29.72,South,186,1.0,-999.0,69,0.00,,,0.00,Wunderground v.1.15,2013-05-30 21:30:00,
2013-05-30 16:36:00,85.8,74.4,29.71,South,173,6.0,-999.0,69,0.00,,,0.00,Wunderground v.1.15,2013-05-30 21:36:00,
2013-05-30 16:41:00,85.4,74.5,29.71,SSE,162,4.0,-999.0,70,0.00,,,0.00,Wunderground v.1.15,2013-05-30 21:41:00,
2013-05-30 16:46:00,85.1,74.2,29.71,ESE,114,5.0,-999.0,70,0.00,,,0.00,Wunderground v.1.15,2013-05-30 21:46:00,
2013-05-30 16:51:00,85.4,74.9,29.71,ENE,70,4.0,-999.0,71,0.00,,,0.00,Wunderground v.1.15,2013-05-30 21:51:00,
2013-05-30 16:56:00,86.3,74.9,29.70,South,176,5.0,-999.0,69,0.00,,,0.00,Wunderground v.1.15,2013-05-30 21:56:00,
2013-05-30 17:01:00,86.6,74.8,29.70,South,191,7.0,-999.0,68,0.00,,,0.00,Wunderground v.1.15,2013-05-30 22:01:00,
2013-05-30 17:06:00,86.3,75.4,29.70,SE,132,3.0,-999.0,70,0.00,,,0.00,Wunderground v.1.15,2013-05-30 22:06:00,
2013-05-30 17:11:00,86.5,75.1,29.70,SSE,148,11.0,-999.0,69,0.00,,,0.00,Wunderground v.1.15,2013-05-30 22:11:00,
2013-05-30 17:16:00,86.6,75.2,29.70,ESE,121,6.0,-999.0,69,0.00,,,0.00,Wunderground v.1.15,2013-05-30 22:16:00,
2013-05-30 17:22:00,86.9,75.1,29.70,ESE,107,0.0,-999.0,68,0.00,,,0.00,Wunderground v.1.15,2013-05-30 22:22:00,
2013-05-30 17:27:00,87.4,75.5,29.70,East,101,0.0,-999.0,68,0.00,,,0.00,Wunderground v.1.15,2013-05-30 22:27:00,
2013-05-30 17:32:00,87.2,75.3,29.70,South,174,6.0,-999.0,68,0.00,,,0.00,Wunderground v.1.15,2013-05-30 22:32:00,
2013-05-30 17:38:00,87.2,74.9,29.70,South,181,0.0,-999.0,67,0.00,,,0.00,Wunderground v.1.15,2013-05-30 22:38:00,
2013-05-30 17:43:00,87.0,75.2,29.70,ESE,120,1.0,-999.0,68,0.00,,,0.00,Wunderground v.1.15,2013-05-30 22:43:00,
2013-05-30 17:48:00,86.3,74.5,29.70,ESE,112,11.0,-999.0,68,0.00,,,0.00,Wunderground v.1.15,2013-05-30 22:48:00,
2013-05-30 17:53:00,85.9,74.5,29.69,South,181,10.0,-999.0,69,0.00,,,0.00,Wunderground v.1.15,2013-05-30 22:53:00,
2013-05-30 17:59:00,86.8,75.4,29.69,ESE,122,9.0,-999.0,69,0.00,,,0.00,Wunderground v.1.15,2013-05-30 22:59:00,
2013-05-30 18:04:00,87.6,74.8,29.69,SSE,166,0.0,-999.0,66,0.00,,,0.00,Wunderground v.1.15,2013-05-30 23:04:00,
2013-05-30 18:09:00,87.1,74.8,29.69,SE,145,0.0,-999.0,67,0.00,,,0.00,Wunderground v.1.15,2013-05-30 23:09:00,
2013-05-30 18:15:00,86.5,74.2,29.69,ESE,122,7.0,-999.0,67,0.00,,,0.00,Wunderground v.1.15,2013-05-30 23:15:00,
2013-05-30 18:20:00,86.3,74.5,29.69,SSE,161,4.0,-999.0,68,0.00,,,0.00,Wunderground v.1.15,2013-05-30 23:20:00,
2013-05-30 18:25:00,86.6,74.8,29.69,SSE,163,5.0,-999.0,68,0.00,,,0.00,Wunderground v.1.15,2013-05-30 23:25:00,
2013-05-30 18:30:00,86.6,74.8,29.69,SW,217,9.0,-999.0,68,0.00,,,0.00,Wunderground v.1.15,2013-05-30 23:30:00,
2013-05-30 18:35:00,86.4,74.6,29.69,ESE,116,3.0,-999.0,68,0.00,,,0.00,Wunderground v.1.15,2013-05-30 23:35:00,
2013-05-30 18:40:00,86.6,74.8,29.69,South,181,12.0,-999.0,68,0.00,,,0.00,Wunderground v.1.15,2013-05-30 23:40:00,
2013-05-30 18:45:00,86.7,74.9,29.69,South,174,5.0,-999.0,68,0.00,,,0.00,Wunderground v.1.15,2013-05-30 23:45:00,
2013-05-30 18:51:00,86.7,74.9,29.69,South,171,12.0,-999.0,68,0.00,,,0.00,Wunderground v.1.15,2013-05-30 23:51:00,
2013-05-30 18:56:00,86.6,74.8,29.69,South,174,1.0,-999.0,68,0.00,,,0.00,Wunderground v.1.15,2013-05-30 23:56:00,
2013-05-30 19:01:00,86.1,74.3,29.70,SSE,157,5.0,-999.0,68,0.00,,,0.00,Wunderground v.1.15,2013-05-31 00:01:00,
2013-05-30 19:06:00,86.1,74.7,29.70,South,191,4.0,-999.0,69,0.00,,,0.00,Wunderground v.1.15,2013-05-31 00:06:00,
2013-05-30 19:11:00,86.4,74.6,29.70,South,181,0.0,-999.0,68,0.00,,,0.00,Wunderground v.1.15,2013-05-31 00:11:00,
2013-05-30 19:17:00,86.5,75.1,29.71,SE,124,0.0,-999.0,69,0.00,,,0.00,Wunderground v.1.15,2013-05-31 00:17:00,
2013-05-30 19:22:00,86.4,75.0,29.71,South,175,0.0,-999.0,69,0.00,,,0.00,Wunderground v.1.15,2013-05-31 00:22:00,
2013-05-30 19:28:00,86.1,74.7,29.71,ESE,114,0.0,-999.0,69,0.00,,,0.00,Wunderground v.1.15,2013-05-31 00:28:00,
2013-05-30 19:33:00,85.9,74.5,29.71,SE,135,0.0,-999.0,69,0.00,,,0.00,Wunderground v.1.15,2013-05-31 00:33:00,
2013-05-30 19:38:00,85.9,74.5,29.71,ESE,118,5.0,-999.0,69,0.00,,,0.00,Wunderground v.1.15,2013-05-31 00:38:00,
2013-05-30 19:43:00,85.7,74.4,29.71,SSE,157,0.0,-999.0,69,0.00,,,0.00,Wunderground v.1.15,2013-05-31 00:43:00,
2013-05-30 19:48:00,85.5,74.2,29.72,ESE,112,7.0,-999.0,69,0.00,,,0.00,Wunderground v.1.15,2013-05-31 00:48:00,
2013-05-30 19:53:00,85.2,74.3,29.72,ESE,121,2.0,-999.0,70,0.00,,,0.00,Wunderground v.1.15,2013-05-31 00:53:00,
2013-05-30 19:58:00,84.9,74.0,29.72,SW,233,0.0,-999.0,70,0.00,,,0.00,Wunderground v.1.15,2013-05-31 00:58:00,
2013-05-30 20:03:00,84.6,74.2,29.72,SE,130,4.0,-999.0,71,0.00,,,0.00,Wunderground v.1.15,2013-05-31 01:03:00,
2013-05-30 20:08:00,84.2,73.8,29.72,ESE,102,5.0,-999.0,71,0.00,,,0.00,Wunderground v.1.15,2013-05-31 01:08:00,
2013-05-30 20:14:00,83.8,73.8,29.72,SSE,155,3.0,-999.0,72,0.00,,,0.00,Wunderground v.1.15,2013-05-31 01:14:00,
2013-05-30 20:19:00,83.4,73.8,29.72,SSE,158,2.0,-999.0,73,0.00,,,0.00,Wunderground v.1.15,2013-05-31 01:19:00,
2013-05-30 20:24:00,83.1,73.5,29.72,ESE,121,4.0,-999.0,73,0.00,,,0.00,Wunderground v.1.15,2013-05-31 01:24:00,
2013-05-30 20:29:00,82.9,73.4,29.71,East,97,2.0,-999.0,73,0.00,,,0.00,Wunderground v.1.15,2013-05-31 01:29:00,
2013-05-30 20:34:00,82.8,73.7,29.71,South,174,6.0,-999.0,74,0.00,,,0.00,Wunderground v.1.15,2013-05-31 01:34:00,
2013-05-30 20:40:00,82.7,73.6,29.71,East,94,0.0,-999.0,74,0.00,,,0.00,Wunderground v.1.15,2013-05-31 01:40:00,
2013-05-30 20:45:00,82.6,73.5,29.71,ESE,120,8.0,-999.0,74,0.00,,,0.00,Wunderground v.1.15,2013-05-31 01:45:00,
2013-05-30 20:50:00,82.5,73.4,29.71,East,100,0.0,-999.0,74,0.00,,,0.00,Wunderground v.1.15,2013-05-31 01:50:00,
2013-05-30 20:55:00,82.2,73.5,29.70,East,92,4.0,-999.0,75,0.00,,,0.00,Wunderground v.1.15,2013-05-31 01:55:00,
2013-05-30 21:00:00,82.0,73.3,29.70,ENE,66,3.0,-999.0,75,0.00,,,0.00,Wunderground v.1.15,2013-05-31 02:00:00,
2013-05-30 21:05:00,81.9,73.2,29.71,SE,142,2.0,-999.0,75,0.00,,,0.00,Wunderground v.1.15,2013-05-31 02:05:00,
2013-05-30 21:10:00,81.8,73.1,29.71,ESE,122,3.0,-999.0,75,0.00,,,0.00,Wunderground v.1.15,2013-05-31 02:10:00,
2013-05-30 21:15:00,81.8,73.5,29.71,East,85,4.0,-999.0,76,0.00,,,0.00,Wunderground v.1.15,2013-05-31 02:15:00,
2013-05-30 21:20:00,81.7,73.4,29.71,ESE,113,4.0,-999.0,76,0.00,,,0.00,Wunderground v.1.15,2013-05-31 02:20:00,
2013-05-30 21:26:00,81.6,73.7,29.71,SSE,158,9.0,-999.0,77,0.00,,,0.00,Wunderground v.1.15,2013-05-31 02:26:00,
2013-05-30 21:31:00,81.7,73.4,29.71,SE,128,3.0,-999.0,76,0.00,,,0.00,Wunderground v.1.15,2013-05-31 02:31:00,
2013-05-30 21:37:00,81.6,73.3,29.71,East,97,6.0,-999.0,76,0.00,,,0.00,Wunderground v.1.15,2013-05-31 02:37:00,
2013-05-30 21:42:00,81.6,73.3,29.72,SE,126,7.0,-999.0,76,0.00,,,0.00,Wunderground v.1.15,2013-05-31 02:42:00,
2013-05-30 21:47:00,81.6,73.3,29.72,SE,132,7.0,-999.0,76,0.00,,,0.00,Wunderground v.1.15,2013-05-31 02:47:00,
2013-05-30 21:53:00,81.8,73.5,29.72,SSE,164,9.0,-999.0,76,0.00,,,0.00,Wunderground v.1.15,2013-05-31 02:53:00,
2013-05-30 21:59:00,81.8,73.1,29.72,SSE,159,3.0,-999.0,75,0.00,,,0.00,Wunderground v.1.15,2013-05-31 02:59:00,
2013-05-30 22:04:00,81.9,73.2,29.73,SSE,155,6.0,-999.0,75,0.00,,,0.00,Wunderground v.1.15,2013-05-31 03:04:00,
2013-05-30 22:09:00,81.9,73.2,29.73,ESE,106,4.0,-999.0,75,0.00,,,0.00,Wunderground v.1.15,2013-05-31 03:09:00,
2013-05-30 22:14:00,81.9,73.2,29.74,SE,139,0.0,-999.0,75,0.00,,,0.00,Wunderground v.1.15,2013-05-31 03:14:00,
2013-05-30 22:20:00,81.8,73.5,29.75,SE,141,3.0,-999.0,76,0.00,,,0.00,Wunderground v.1.15,2013-05-31 03:20:00,
2013-05-30 22:26:00,81.5,73.2,29.75,ESE,108,4.0,-999.0,76,0.00,,,0.00,Wunderground v.1.15,2013-05-31 03:26:00,
2013-05-30 22:31:00,81.4,73.5,29.75,SE,141,3.0,-999.0,77,0.00,,,0.00,Wunderground v.1.15,2013-05-31 03:31:00,
2013-05-30 22:36:00,81.2,73.3,29.76,ENE,78,4.0,-999.0,77,0.00,,,0.00,Wunderground v.1.15,2013-05-31 03:36:00,
2013-05-30 22:41:00,81.2,73.7,29.76,ENE,60,6.0,-999.0,78,0.00,,,0.00,Wunderground v.1.15,2013-05-31 03:41:00,
2013-05-30 22:46:00,81.2,73.7,29.76,NE,52,4.0,-999.0,78,0.00,,,0.00,Wunderground v.1.15,2013-05-31 03:46:00,
2013-05-30 22:51:00,81.3,73.8,29.77,NE,53,6.0,-999.0,78,0.00,,,0.00,Wunderground v.1.15,2013-05-31 03:51:00,
2013-05-30 22:57:00,81.2,73.7,29.76,ESE,120,3.0,-999.0,78,0.00,,,0.00,Wunderground v.1.15,2013-05-31 03:57:00,
2013-05-30 23:01:00,81.3,73.8,29.77,SE,127,5.0,-999.0,78,0.00,,,0.00,Wunderground v.1.15,2013-05-31 04:01:00,
2013-05-30 23:03:00,81.3,73.8,29.77,SSE,162,7.0,-999.0,78,0.00,,,0.00,Wunderground v.1.15,2013-05-31 04:03:00,
2013-05-30 23:05:00,81.3,73.8,29.76,SE,124,7.0,-999.0,78,0.00,,,0.00,Wunderground v.1.15,2013-05-31 04:05:00,
2013-05-30 23:10:00,81.1,73.6,29.77,SSE,157,9.0,-999.0,78,0.00,,,0.00,Wunderground v.1.15,2013-05-31 04:10:00,
2013-05-30 23:15:00,81.0,73.9,29.77,ENE,76,3.0,-999.0,79,0.00,,,0.00,Wunderground v.1.15,2013-05-31 04:15:00,
2013-05-30 23:20:00,80.8,73.7,29.77,East,81,4.0,-999.0,79,0.00,,,0.00,Wunderground v.1.15,2013-05-31 04:20:00,
2013-05-30 23:25:00,80.7,73.6,29.77,ESE,118,8.0,-999.0,79,0.00,,,0.00,Wunderground v.1.15,2013-05-31 04:25:00,
2013-05-30 23:30:00,80.6,73.9,29.77,SSE,149,5.0,-999.0,80,0.00,,,0.00,Wunderground v.1.15,2013-05-31 04:30:00,
2013-05-30 23:35:00,80.5,73.8,29.77,SE,128,4.0,-999.0,80,0.00,,,0.00,Wunderground v.1.15,2013-05-31 04:35:00,
2013-05-30 23:40:00,80.3,73.6,29.77,SSE,166,9.0,-999.0,80,0.00,,,0.00,Wunderground v.1.15,2013-05-31 04:40:00,
2013-05-30 23:45:00,80.2,73.8,29.76,SE,137,3.0,-999.0,81,0.00,,,0.00,Wunderground v.1.15,2013-05-31 04:45:00,
2013-05-30 23:51:00,80.0,73.6,29.77,ESE,123,8.0,-999.0,81,0.00,,,0.00,Wunderground v.1.15,2013-05-31 04:51:00,
2013-05-30 23:56:00,79.9,73.5,29.77,SSE,153,4.0,-999.0,81,0.00,,,0.00,Wunderground v.1.15,2013-05-31 04:56:00,